TimeEST,TemperatureF,Dew PointF,Humidity,Sea Level PressureIn,VisibilityMPH,Wind Direction,Wind SpeedMPH,Gust SpeedMPH,PrecipitationIn,Events,Conditions,WindDirDegrees,DateUTC
12:53 AM,25.0,17.1,72,30.41,10.0,NNW,4.6,-,N/A,,Clear,330,2013-03-08 05:53:00
1:53 AM,25.0,17.1,72,30.43,10.0,NW,4.6,-,N/A,,Clear,320,2013-03-08 06:53:00
2:53 AM,24.1,17.1,75,30.44,10.0,WNW,5.8,-,N/A,,Clear,300,2013-03-08 07:53:00
3:53 AM,25.0,17.1,72,30.43,10.0,NNW,6.9,-,N/A,,Clear,340,2013-03-08 08:53:00
4:53 AM,24.1,16.0,71,30.45,10.0,NW,6.9,-,N/A,,Clear,320,2013-03-08 09:53:00
5:53 AM,24.1,16.0,71,30.45,10.0,North,5.8,-,N/A,,Clear,350,2013-03-08 10:53:00
6:53 AM,24.1,16.0,71,30.48,10.0,WNW,3.5,-,N/A,,Clear,300,2013-03-08 11:53:00
7:53 AM,27.0,18.0,69,30.49,10.0,NNW,3.5,-,N/A,,Clear,330,2013-03-08 12:53:00
8:53 AM,30.9,21.0,67,30.50,10.0,WNW,3.5,-,N/A,,Clear,300,2013-03-08 13:53:00
9:53 AM,36.0,21.9,57,30.51,10.0,North,3.5,-,N/A,,Clear,10,2013-03-08 14:53:00
10:53 AM,39.0,23.0,53,30.50,10.0,Calm,Calm,-,N/A,,Clear,0,2013-03-08 15:53:00
11:53 AM,42.1,24.1,49,30.49,10.0,Calm,Calm,-,N/A,,Clear,0,2013-03-08 16:53:00
12:53 PM,43.0,25.0,49,30.48,10.0,South,3.5,-,N/A,,Clear,190,2013-03-08 17:53:00
1:53 PM,44.1,25.0,47,30.45,10.0,Variable,4.6,-,N/A,,Clear,0,2013-03-08 18:53:00
2:53 PM,45.0,24.1,44,30.44,10.0,Calm,Calm,-,N/A,,Clear,0,2013-03-08 19:53:00
3:53 PM,46.0,24.1,42,30.43,10.0,Calm,Calm,-,N/A,,Clear,0,2013-03-08 20:53:00
4:53 PM,45.0,25.0,46,30.44,10.0,SSW,5.8,-,N/A,,Clear,200,2013-03-08 21:53:00
5:53 PM,43.0,26.1,51,30.43,10.0,SSW,4.6,-,N/A,,Clear,210,2013-03-08 22:53:00
6:53 PM,41.0,25.0,53,30.43,10.0,SW,4.6,-,N/A,,Clear,220,2013-03-08 23:53:00
7:53 PM,35.1,25.0,67,30.43,10.0,South,6.9,-,N/A,,Clear,170,2013-03-09 00:53:00
8:53 PM,34.0,24.1,67,30.44,10.0,South,3.5,-,N/A,,Clear,180,2013-03-09 01:53:00
9:53 PM,32.0,24.1,73,30.45,10.0,Calm,Calm,-,N/A,,Clear,0,2013-03-09 02:53:00
10:53 PM,33.1,24.1,70,30.45,10.0,Calm,Calm,-,N/A,,Clear,0,2013-03-09 03:53:00
11:53 PM,30.0,24.1,79,30.44,10.0,Calm,Calm,-,N/A,,Clear,0,2013-03-09 04:53:00